{"data":{"norad_id":67069,"intl_designator":"2025-296A","name":"XIWANG-5 02","alt_names":[],"object_type":"PAYLOAD","status":"ACTIVE","operator":null,"country":"PRC","launch_date":"2025-12-13","launch_site_code":"JSC","launch_vehicle":null,"mission":null,"orbit_class":"UNKNOWN","rcs_meters":null,"size_class":null,"mass_kg":null,"dimensions":null,"purposes":[],"wikipedia_slug":null,"has_3d_model":false,"image_url":null,"decayed_at":null,"tle_current":{"epoch":"2026-09-20T03:12:19.718784Z","epoch_age_seconds":140270,"freshness":"FRESH","line1":"1 67069U 25296A   26263.13356156  .00005177  00000+0  26057-3 0  9993","line2":"2 67069  41.3522 299.4778 0004234  59.8532 300.2709 15.17839361 42661","mean_motion":15.17839361,"eccentricity":0.0004234,"inclination_deg":41.3522,"raan_deg":299.4778,"arg_perigee_deg":59.8532,"mean_anomaly_deg":300.2709,"bstar":0.00026057,"rev_number":4266,"period_min":94.871699667301,"perigee_km":509.45450195205,"apogee_km":515.28938492536,"semimajor_km":6890.5089434387,"source":"CELESTRAK","updated_at":"2026-09-21T09:00:16.411164Z"}}}